Weather History for Great Bend, KS

Change the Weather History Date:

Tuesday, January 8, 2013

  Actual Average Record
Temperature  
Mean Temperature 38 °F -  
Max Temperature 48 °F 36 °F 46 °F (2015)
Min Temperature 28 °F 14 °F 8 °F (2015)
Degree Days  
Heating Degree Days 27    
Moisture  
Dew Point 27 °F    
Average Humidity 69    
Maximum Humidity 86    
Minimum Humidity 53    
Precipitation  
Precipitation 0.00 in - - ()
Sea Level Pressure  
Sea Level Pressure 29.97 in    
Wind  
Wind Speed 12 mph (WSW)    
Max Wind Speed 22 mph    
Max Gust Speed 26 mph    
Visibility 10 miles    
Events      
Averages and records for this station are not official NWS values.
T = Trace of Precipitation, MM = Missing Value Source: NWS Daily Summary

Daily Weather History Graph

Daily Weather History Graph

Search for Another Location

Airport:

Trip Planner

Search our weather history database for the weather conditions in past years. The results will help you decide how hot, cold, wet, or windy it might be!

Date:

Astronomy

Jan. 08, 2013 Rise Set
Actual Time 7:52 AM CST 5:32 PM CST
Civil Twilight 7:23 AM CST 6:01 PM CST
Nautical Twilight 6:50 AM CST 6:34 PM CST
Astronomical Twilight 6:18 AM CST 7:06 PM CST
Moon 4:27 AM CST (1/8) 2:35 PM CST (1/8)
Length of Visible Light 10h 38m
Length of Day
9h 39m
Waning Crescent, 13% of the Moon is Illuminated
Jan 8
Waning Crescent
Jan 11
New
Jan 18
First Quarter
Jan 26
Full
Feb 3
Last Quarter

Hourly Weather History & Observations

Time (CST) Temp. Windchill Dew Point Humidity Pressure Visibility Wind Dir Wind Speed Gust Speed Precip Events Conditions
12:15 AM 33.8 °F 24.3 °F 24.8 °F 70% 29.93 in 10.0 mi SSW 13.8 mph - N/A   Clear
12:55 AM 33.8 °F 24.3 °F 24.8 °F 70% 29.92 in 10.0 mi SSW 13.8 mph - N/A   Clear
1:15 AM 33.8 °F 24.8 °F 24.8 °F 70% 29.92 in 10.0 mi South 12.7 mph - N/A   Clear
1:35 AM 32.0 °F 22.1 °F 24.8 °F 75% 29.91 in 10.0 mi South 13.8 mph - N/A   Clear
1:55 AM 32.0 °F 22.5 °F 24.8 °F 75% 29.92 in 10.0 mi South 12.7 mph - N/A   Clear
2:15 AM 32.0 °F 22.5 °F 24.8 °F 75% 29.92 in 10.0 mi SSW 12.7 mph - N/A   Clear
2:35 AM 30.2 °F 20.2 °F 24.8 °F 80% 29.92 in 10.0 mi South 12.7 mph - N/A   Clear
2:55 AM 30.2 °F 20.2 °F 24.8 °F 80% 29.92 in 10.0 mi South 12.7 mph - N/A   Clear
3:15 AM 30.2 °F 20.2 °F 24.8 °F 80% 29.92 in 10.0 mi South 12.7 mph - N/A   Clear
3:35 AM 32.0 °F 22.1 °F 24.8 °F 75% 29.92 in 10.0 mi South 13.8 mph - N/A   Clear
3:55 AM 32.0 °F 21.2 °F 24.8 °F 75% 29.91 in 10.0 mi South 16.1 mph - N/A   Clear
4:15 AM 32.0 °F 20.8 °F 24.8 °F 75% 29.90 in 10.0 mi South 17.3 mph - N/A   Clear
4:35 AM 33.8 °F 25.3 °F 24.8 °F 70% 29.89 in 10.0 mi South 11.5 mph - N/A   Clear
4:55 AM 32.0 °F 20.8 °F 24.8 °F 75% 29.88 in 10.0 mi South 17.3 mph - N/A   Clear
5:15 AM 32.0 °F 19.8 °F 23.0 °F 69% 29.87 in 10.0 mi South 20.7 mph 24.2 mph N/A   Clear
5:35 AM 32.0 °F 20.5 °F 23.0 °F 69% 29.86 in 10.0 mi South 18.4 mph - N/A   Clear
5:55 AM 32.0 °F 21.6 °F 24.8 °F 75% 29.87 in 10.0 mi SSW 15.0 mph - N/A   Clear
6:15 AM 32.0 °F 21.6 °F 23.0 °F 69% 29.86 in 10.0 mi South 15.0 mph 20.7 mph N/A   Clear
6:55 AM 33.8 °F 23.2 °F 24.8 °F 70% 29.86 in 10.0 mi South 17.3 mph 23.0 mph N/A   Clear
7:15 AM 33.8 °F 21.9 °F 24.8 °F 70% 29.85 in 10.0 mi South 21.9 mph 26.5 mph N/A   Clear
7:35 AM 33.8 °F 21.9 °F 23.0 °F 65% 29.84 in 10.0 mi South 21.9 mph 26.5 mph N/A   Clear
8:15 AM 33.8 °F 23.5 °F 24.8 °F 70% 29.88 in 10.0 mi SW 16.1 mph - N/A   Clear
8:35 AM 33.8 °F 24.3 °F 24.8 °F 70% 29.91 in 10.0 mi WSW 13.8 mph - N/A   Clear
8:55 AM 33.8 °F 24.3 °F 24.8 °F 70% 29.90 in 10.0 mi SSW 13.8 mph - N/A   Clear
9:15 AM 35.6 °F 26.6 °F 24.8 °F 65% 29.92 in 10.0 mi SW 13.8 mph - N/A   Clear
9:35 AM 35.6 °F 27.5 °F 26.6 °F 70% 29.94 in 10.0 mi WSW 11.5 mph - N/A   Clear
9:55 AM 37.4 °F 29.8 °F 26.6 °F 65% 29.94 in 10.0 mi SW 11.5 mph 19.6 mph N/A   Clear
10:15 AM 37.4 °F 28.9 °F 26.6 °F 65% 29.94 in 10.0 mi SSW 13.8 mph - N/A   Clear
10:35 AM 39.2 °F 31.6 °F 28.4 °F 65% 29.94 in 10.0 mi SW 12.7 mph - N/A   Clear
10:55 AM 41.0 °F 33.9 °F 28.4 °F 61% 29.94 in 10.0 mi SW 12.7 mph - N/A   Clear
11:15 AM 41.0 °F 33.1 °F 28.4 °F 61% 29.94 in 10.0 mi SW 15.0 mph - N/A   Clear
11:35 AM 42.8 °F 35.1 °F 28.4 °F 57% 29.93 in 10.0 mi SW 16.1 mph 20.7 mph N/A   Clear
11:55 AM 42.8 °F 35.1 °F 28.4 °F 57% 29.93 in 10.0 mi SW 16.1 mph 20.7 mph N/A   Clear
12:15 PM 44.6 °F 37.8 °F 30.2 °F 57% 29.92 in 10.0 mi SW 15.0 mph - N/A   Clear
12:35 PM 44.6 °F 38.1 °F 32.0 °F 61% 29.92 in 10.0 mi WSW 13.8 mph - N/A   Clear
12:55 PM 44.6 °F 38.1 °F 30.2 °F 57% 29.91 in 10.0 mi SW 13.8 mph - N/A   Clear
1:15 PM 44.6 °F 38.1 °F 32.0 °F 61% 29.92 in 10.0 mi WSW 13.8 mph - N/A   Clear
1:55 PM 46.4 °F 41.1 °F 33.8 °F 62% 29.90 in 10.0 mi WNW 11.5 mph - N/A   Clear
2:15 PM 46.4 °F 41.5 °F 32.0 °F 57% 29.91 in 10.0 mi West 10.4 mph - N/A   Clear
2:35 PM 46.4 °F 41.9 °F 32.0 °F 57% 29.92 in 10.0 mi West 9.2 mph - N/A   Clear
2:55 PM 46.4 °F 42.4 °F 30.2 °F 53% 29.93 in 10.0 mi West 8.1 mph - N/A   Clear
3:15 PM 48.2 °F - 32.0 °F 54% 29.95 in 10.0 mi WNW 8.1 mph - N/A   Clear
3:35 PM 46.4 °F 41.9 °F 30.2 °F 53% 29.96 in 10.0 mi WNW 9.2 mph - N/A   Clear
3:55 PM 46.4 °F 41.9 °F 32.0 °F 57% 29.97 in 10.0 mi WNW 9.2 mph - N/A   Clear
4:15 PM 46.4 °F 41.9 °F 32.0 °F 57% 29.99 in 10.0 mi WNW 9.2 mph - N/A   Clear
4:35 PM 46.4 °F 44.3 °F 32.0 °F 57% 30.00 in 10.0 mi WNW 4.6 mph - N/A   Clear
4:55 PM 44.6 °F 41.4 °F 30.2 °F 57% 30.01 in 10.0 mi West 5.8 mph - N/A   Clear
5:15 PM 42.8 °F 39.3 °F 32.0 °F 66% 30.02 in 10.0 mi West 5.8 mph - N/A   Clear
5:35 PM 42.8 °F 41.1 °F 30.2 °F 61% 30.03 in 10.0 mi West 3.5 mph - N/A   Clear
5:55 PM 37.4 °F 33.8 °F 28.4 °F 70% 30.04 in 10.0 mi NW 4.6 mph - N/A   Clear
6:15 PM 35.6 °F 32.8 °F 26.6 °F 70% 30.06 in 10.0 mi NW 3.5 mph - N/A   Clear
6:35 PM 35.6 °F 30.7 °F 26.6 °F 70% 30.07 in 10.0 mi WNW 5.8 mph - N/A   Clear
6:55 PM 33.8 °F 27.7 °F 26.6 °F 75% 30.08 in 10.0 mi NW 6.9 mph - N/A   Clear
7:15 PM 33.8 °F 27.7 °F 24.8 °F 70% 30.08 in 10.0 mi WNW 6.9 mph - N/A   Clear
7:55 PM 32.0 °F 28.7 °F 24.8 °F 75% 30.10 in 10.0 mi SSW 3.5 mph - N/A   Clear
8:15 PM 30.2 °F 24.3 °F 24.8 °F 80% 30.11 in 10.0 mi WSW 5.8 mph - N/A   Clear
8:35 PM 30.2 °F 24.3 °F 23.0 °F 75% 30.12 in 10.0 mi West 5.8 mph - N/A   Clear
8:55 PM 28.4 °F 24.6 °F 23.0 °F 80% 30.13 in 10.0 mi WNW 3.5 mph - N/A   Clear
9:15 PM 28.4 °F - 24.8 °F 86% 30.14 in 10.0 mi Calm Calm - N/A   Clear
9:35 PM 28.4 °F 24.6 °F 24.8 °F 86% 30.14 in 10.0 mi West 3.5 mph - N/A   Clear
10:15 PM 28.4 °F 22.2 °F 24.8 °F 86% 30.15 in 10.0 mi NW 5.8 mph - N/A   Clear
10:35 PM 28.4 °F 21.2 °F 23.0 °F 80% 30.17 in 10.0 mi WNW 6.9 mph - N/A   Clear
11:15 PM 28.4 °F 22.2 °F 23.0 °F 80% 30.18 in 10.0 mi WNW 5.8 mph - N/A   Clear
11:55 PM 28.4 °F 21.2 °F 24.8 °F 86% 30.19 in 10.0 mi NW 6.9 mph - N/A   Clear